Location: Watson Lake
(60.1170°N, 128.8000°W)
Time: 08:05:20
(UTC-07:00)

Daily predictions for brighter satellites

Satellite Brightness Start Highest point End
(mag) Time Altitude Azimuth Time Altitude Azimuth Time Altitude Azimuth
Cosmos 1869 3.6 22:02:19 10° SSW 22:06:17 74° WNW 22:10:17 10° NNE
Cosmos 1867 4.3 22:01:56 10° WNW 22:07:11 47° SW 22:12:21 10° SSE
CZ-4C R/B 2.8 22:02:20 10° WNW 22:08:48 84° NNE 22:16:17 10° ESE
DNEPR-1 R/B 3.8 22:05:11 10° SW 22:10:27 65° SE 22:14:57 10° ENE
Cosmos 2084 3.2 22:07:48 10° WNW 22:11:37 89° S 22:15:30 10° ESE
YAOGAN 6 3.5 22:08:29 10° S 22:12:02 50° W 22:15:35 10° NNW
Resurs 01 Rocket 4.4 22:10:30 10° SW 22:13:29 17° W 22:16:30 10° NW
Meteor 1-14 Rocket 4.3 22:08:10 10° NNW 22:13:50 86° ENE 22:19:32 10° SSE
CARTOSAT-1 4.4 22:10:09 10° SE 22:14:09 38° ENE 22:18:11 10° N
MetOp-A 4.4 22:12:01 10° SSE 22:17:23 75° WSW 22:22:47 10° NNW
Cosmos 1697 Rocket 3.2 22:11:51 10° SW 22:17:30 67° NW 22:23:09 10° NE
Cosmos 2279 Rocket 4.0 22:11:49 10° S 22:18:04 82° E 22:24:20 10° NNE
NOSS 3-2 (A) 4.1 22:12:13 10° W 22:18:47 72° N 22:26:10 10° ENE
Genesis I 3.8 22:15:12 10° WSW 22:19:07 63° NNW 22:23:04 10° ENE
H-2A R/B 2.1 22:14:45 10° SSE 22:19:43 67° ENE 22:24:37 10° NNW
Cosmos 968 Rocket 4.1 22:15:28 10° NW 22:20:32 56° WSW 22:25:37 10° S
MOS 1-B Rocket 3.9 22:14:48 10° SSE 22:20:39 89° ENE 22:26:18 10° NNW
USA 267 3.4 22:16:26 10° E 22:22:53 57° SSE 22:29:21 10° WSW
Cosmos 2263 Rocket 3.6 22:19:25 10° NW 22:24:22 33° WSW 22:29:18 10° S
Cosmos 44 Rocket 4.3 22:20:40 10° W 22:25:25 50° N 22:30:04 10° ENE
Sich 1 Rocket 4.0 22:21:00 10° NNW 22:25:26 67° W 22:29:54 10° S
COSMOS 2455 3.9 22:19:36 10° W 22:25:28 49° NNW 22:31:21 10° ENE
ASTEX 1 4.3 22:23:11 10° SE 22:27:45 37° ENE 22:32:18 10° N
SPOT 5 3.0 22:23:56 10° SSE 22:28:44 75° WSW 22:33:19 10° NNW
Meteor 1-25 Rocket 4.2 22:23:31 10° NNW 22:29:13 85° ENE 22:34:48 10° SSE
Cosmos 1933 3.3 22:27:21 10° S 22:31:24 86° ESE 22:35:28 10° NNE
Cosmos 2369 Rocket 4.0 22:27:19 10° NW 22:32:09 28° N 22:37:00 10° ENE
Cosmos 1908 Rocket 4.3 22:33:07 10° NNW 22:37:22 53° W 22:41:35 10° S
Meteor 2-10 Rocket 3.8 22:31:55 10° S 22:37:41 67° E 22:43:24 10° NNE
COSMOS 2428 4.0 22:34:16 10° SSE 22:38:26 21° ESE 22:42:37 10° NE
Cosmos 2322 Rocket 2.2 22:33:43 10° SSW 22:39:17 67° ESE 22:44:55 10° NE
CZ-4C R/B 4.4 22:36:21 11° ESE 22:39:33 29° ENE 22:42:44 10° N
H-2A R/B 2.2 22:38:13 11° SSE 22:42:19 69° ENE 22:46:43 10° NNW
ATLAS 3B R/B 3.1 22:35:43 10° WNW 22:42:53 68° N 22:49:41 10° E
PSLV R/B 3.6 22:40:52 14° SE 22:43:04 40° ENE 22:45:46 10° N
Cosmos 1461 4.1 22:42:51 10° W 22:46:40 42° N 22:50:32 10° ENE
Cosmos 1844 3.8 22:41:09 10° NW 22:46:55 80° SW 22:52:07 12° SSE
Helios 1B rocket 3.7 22:43:44 10° N 22:47:41 45° WNW 22:51:36 10° SW
Meteor 1-20 Rocket 4.3 22:42:59 10° NNW 22:48:33 82° WSW 22:54:10 10° S
Cosmos 2360 Rocket 2.6 22:44:25 10° S 22:49:42 41° ESE 22:55:01 10° NE
Cosmos 1980 Rocket 2.8 22:44:56 10° SW 22:50:36 64° NW 22:56:19 10° NE
Cosmos 1782 Rocket 4.0 22:47:08 10° NNW 22:51:27 61° W 22:55:45 10° S
Cosmos 1606 3.8 22:49:05 14° SE 22:51:40 27° E 22:54:55 10° NNE
Cosmos 1633 2.9 22:49:04 10° N 22:52:41 53° ENE 22:55:35 15° SSE
Cosmos 1943 Rocket 4.1 22:50:02 10° NW 22:54:55 28° N 22:59:48 10° ENE
Okean 2 Rocket 3.3 22:50:34 10° NNW 22:55:07 74° W 22:59:39 10° S
Cosmos 1937 Rocket 4.1 22:52:11 10° NNW 22:57:21 50° NE 23:02:05 12° ESE
USA 238 DEB 4.1 22:50:19 10° WNW 22:57:21 69° N 23:04:27 10° E
USA 238 4.1 22:50:25 10° WNW 22:57:27 69° N 23:04:32 10° E
Cosmos 2322 4.1 22:52:36 10° S 22:57:56 42° ESE 23:03:16 10° NE
IGS 5A 3.5 22:55:15 14° SSE 22:58:51 73° ENE 23:03:02 10° NNW
Cosmos 1300 Rocket 4.1 22:55:00 10° N 22:59:12 46° ENE 23:02:34 15° SE
ATLAS 5 CENTAUR R/B 4.0 23:00:23 10° WNW 23:04:55 24° WSW 23:09:46 10° S
SL-16 R/B 2.2 23:01:27 10° SW 23:07:09 88° SE 23:12:53 10° NE
SPOT 1/Viking Rocket 4.1 23:02:09 10° S 23:07:18 56° WSW 23:12:27 10° NNW
Cosmos 1782 3.2 23:04:48 14° SSE 23:08:01 44° E 23:11:52 10° NNE
USA 129 0.9 23:10:36 10° NNE 23:12:04 62° ESE 23:12:23 46° SSE
Cosmos 990 Rocket 4.5 23:07:43 10° NNW 23:12:47 52° NE 23:17:09 14° ESE
Cosmos 1898 Rocket 3.6 23:11:02 10° NNW 23:16:15 74° NE 23:20:22 16° SE
Landsat 7 4.2 23:12:13 11° S 23:16:42 62° WSW 23:21:27 10° NNW
Cosmos 2333 Rocket 3.6 23:16:06 15° SE 23:18:50 21° ESE 23:23:03 10° NE
Cosmos 44 4.3 23:14:30 10° WNW 23:18:56 44° N 23:23:11 10° ENE
Cosmos 2278 Rocket 2.2 23:13:36 10° NW 23:19:19 80° SW 23:23:48 17° SSE
SeaSat 1 4.2 23:17:41 10° SSW 23:21:40 24° WSW 23:25:41 10° NW
ARGOS 4.3 23:17:18 10° SSW 23:22:17 38° W 23:27:20 10° NNW
deb Chang Zheng 4 4.1 23:18:09 10° NNE 23:22:24 43° E 23:25:30 17° SSE
Timation 1 Rocket 4.4 23:18:33 10° NW 23:24:36 86° SW 23:29:22 17° SE
Cosmos 2237 Rocket 3.7 23:23:19 15° SE 23:25:36 18° E 23:29:22 10° ENE
Okean 1-7 3.1 23:22:00 10° SSW 23:26:26 89° W 23:30:53 10° NNE
Cosmos 1844 Rocket 3.5 23:22:38 10° NW 23:27:52 42° WSW 23:32:24 13° S
NOSS 3-2 (C) 4.2 23:21:41 10° W 23:28:21 68° N 23:35:52 10° E
Cosmos 2151 Rocket 3.8 23:24:11 10° NNW 23:28:36 69° W 23:32:12 15° S
Cosmos 1346 Rocket 3.7 23:27:02 20° SE 23:29:05 32° E 23:32:40 10° NNE
Cosmos 1745 Rocket 4.1 23:23:22 10° NNW 23:29:42 81° ENE 23:34:52 17° SSE
Cosmos 1992 Rocket 4.4 23:26:04 10° SW 23:31:18 68° NW 23:36:35 10° NNE
Terra 2.1 23:27:49 14° S 23:31:50 63° WSW 23:36:36 10° NNW
Meteor 1-5 Rocket 4.4 23:26:21 10° NNW 23:31:52 64° ENE 23:36:07 18° SSE
Cosmos 1703 Rocket 4.1 23:30:07 10° SSW 23:34:31 60° WNW 23:38:55 10° N
Cosmos 1602 3.8 23:31:00 10° NNW 23:34:52 78° WSW 23:37:30 20° S
Spot 4 3.8 23:31:24 18° SSE 23:34:59 89° WSW 23:39:49 10° NNW
CZ-4 R/B 4.3 23:31:59 10° NNE 23:36:34 45° E 23:39:45 19° SSE
CZ-2C R/B 4.5 23:34:01 10° NE 23:37:32 17° E 23:40:23 12° ESE
Iridium 4 Rocket 3.0 23:34:00 10° N 23:38:17 72° E 23:41:03 21° SSE
Cosmos 2221 Rocket 4.0 23:37:15 10° SSW 23:41:39 65° WNW 23:46:07 10° N
Meteor 1-27 Rocket 4.0 23:37:46 17° SSE 23:41:51 50° E 23:47:14 10° NNE
CENTAUR R/B 3.1 23:35:45 10° W 23:42:32 73° NNW 23:50:18 10° ENE
DELTA 2 DEB (DPAF) 4.2 23:40:48 19° SSE 23:43:58 79° WSW 23:48:30 10° NNW
DMSP B5D2-2 4.1 23:42:58 10° NNE 23:48:17 77° ESE 23:53:01 13° SSW
NOSS 3-1 (C) 4.4 23:46:08 19° SSE 23:49:09 27° ESE 23:54:39 10° ENE
CARTOSAT-1 4.4 23:46:48 14° SSW 23:50:14 44° W 23:54:25 10° NNW
Cosmos 2084 4.4 23:47:30 10° WNW 23:50:48 28° SW 23:52:28 20° S
Cosmos 1607 4.1 23:44:36 10° WNW 23:50:57 79° NNE 23:57:14 11° ESE
USA 229 DEB 3.9 23:45:34 10° SSW 23:52:07 50° SE 23:58:51 10° ENE
USA 229 3.9 23:45:40 10° SSW 23:52:14 49° SE 23:58:56 10° ENE
Meteor 1-11 Rocket 4.0 23:48:27 10° NNW 23:53:56 64° W 23:58:09 17° S
Okean 1 Rocket 3.1 23:50:11 10° NNW 23:54:39 87° WSW 23:57:28 22° S
